Powrót do katalogu

STARLINK-37476

AktywnyŁącznośćSSO
NORAD 68853·PAYLOAD·🇺🇸 United States

Wystrzelony Apr 26, 2026 z Vandenberg Space Force Base

Loading…

Następne Przeloty (najbliższe 24 godziny)

TLE

ŚwieżeSource: CelesTrak SupGP

Epoka: Sep 15, 2026, 03:06 UTC

1 68853C 26094Q   26258.12965278 -.00055320  00000+0 -17173-2 0  2589
2 68853  97.2834 271.3425 0001634  89.2131 327.7101 15.33465579    17

Śledź STARLINK-37476 w czasie rzeczywistym z AllMySat

Download on the App Store